Regional Weather Roundup
Issued by NWS

Home | Current Version | Previous Version | Text Only | Print | Product List | Glossary On
Versions: 1 2 3 4 5 6 7 8 9 10 11 12 13 14 15 16 17 18 19 20 21 22 23 24 25 26 27 28 29 30 31 32 33 34 35 36 37 38 39 40 41 42 43 44 45 46 47 48 49 50
000
ASUS43 KDMX 170707
RWRIA

WEATHER ROUNDUP FOR IOWA
NATIONAL WEATHER SERVICE DES MOINES IA
200 AM CDT WED SEP 17 2014

NOTE: "FAIR" INDICATES FEW OR NO CLOUDS BELOW 12,000 FEET WITH NO
SIGNIFICANT WEATHER AND/OR OBSTRUCTIONS TO VISIBILITY.

* - THESE STATIONS ARE NOT NWS STATIONS...THUS NOT UNDER NWS
QUALITY CONTROL.  THEY ALSO DO NOT REPORT WEATHER SUCH
AS PRECIPITATION OR FOG.

IAZ001>003-012>014-020>022-031>034-043>046-170800-
   NORTHWEST IOWA

CITY           SKY/WX    TMP DP  RH WIND       PRES   REMARKS
CARROLL *      CLOUDY    48  48 100 CALM      30.00F
CHEROKEE *     CLOUDY    52  52 100 S5        29.98F
DENISON *      CLOUDY    57  52  82 SE3       29.98S
LE MARS *        N/A     59  52  77 S8        29.97S
ORANGE CITY *  CLOUDY    57  48  72 CALM      29.97F
SHELDON *      CLOUDY    55  50  82 CALM      29.97S
SIOUX CITY     CLOUDY    58  53  84 SE5       29.97F
SPENCER        MOCLDY    53  48  83 S5        29.99S
STORM LAKE *   CLEAR     48  48 100 S7        29.99F
$$

IAZ055>058-069>071-079>083-090>094-170800-
   SOUTHWEST IOWA

CITY           SKY/WX    TMP DP  RH WIND       PRES   REMARKS
ATLANTIC *     CLOUDY    59  52  77 CALM      29.99S
AUDUBON *      CLOUDY    54  46  76 CALM      30.01S
CLARINDA *     CLOUDY    59  55  88 CALM      30.01S
COUNCIL BLFS * CLOUDY    61  55  82 S8        29.97S
CRESTON *      CLOUDY    55  52  88 SE7       30.02S
HARLAN  *      CLOUDY    57  54  88 CALM      30.02F
LAMONI         CLOUDY    57  50  77 SE5       30.02F
SHENANDOAH *   CLOUDY    61  55  82 SE3       29.99S
$$

IAZ047>049-059>061-072>074-084-170800-
   CENTRAL IOWA

CITY           SKY/WX    TMP DP  RH WIND       PRES   REMARKS
AMES           PTCLDY    48  47  96 S5        30.02F
ANKENY *       CLEAR     48  48 100 CALM      30.02F
CHARITON *     CLOUDY    54  50  87 SE5       30.03S
DES MOINES     MOCLDY    56  49  77 SE7       30.02F
GRINNELL*      MOCLDY    50  46  87 SE3       30.04F
KNOXVILLE *    CLOUDY    54  48  82 SE5       30.02F
MARSHALLTOWN   CLOUDY    51  48  89 SE6       30.03F
PELLA *        PTCLDY    50  50 100 SE3       30.05F
PERRY *          N/A     50  50 100 SE5       30.01F
$$

IAZ004>006-015-016-023>025-035-036-170800-
   NORTH CENTRAL IOWA

CITY           SKY/WX    TMP DP  RH WIND       PRES   REMARKS
ALGONA *       CLEAR     52  48  87 S6        30.00S
CLARION *        N/A     52  48  87 S3        30.01F
ESTHERVILLE    CLOUDY    53  49  86 S5        29.99S
FORT DODGE *   CLEAR     52  46  82 CALM      30.01S
MASON CITY     CLEAR     43  42  97 S5        30.03F
FOREST CITY *  CLOUDY    50  48  93 CALM      30.01S
IOWA FALLS *   CLOUDY    52  48  87 S7        30.02F
$$

IAZ007>011-017>019-026>030-037>042-050>054-066-170800-
   NORTHEAST IOWA

CITY           SKY/WX    TMP DP  RH WIND       PRES   REMARKS
CEDAR RAPIDS   PTCLDY    47  46  97 SE3       30.04F
CHARLES CITY * PTCLDY    46  45  93 S3        30.03F
CLINTON *      CLEAR     43  39  87 E5        30.09F
DECORAH *      CLEAR     48  45  87 CALM      30.03S
DUBUQUE        CLEAR     46  43  89 CALM      30.06F
MONTICELLO *   CLEAR     43  43 100 CALM      30.05F
OELWEIN *      CLEAR     45  43  93 S6        30.05F
WATERLOO       CLOUDY    49  47  93 E3        30.03F
$$

IAZ064-065-067-068-078-170800-
   EAST CENTRAL IOWA

CITY           SKY/WX    TMP DP  RH WIND       PRES   REMARKS
DAVENPORT      CLEAR     47  43  86 SE3       30.07F
IOWA CITY      CLEAR     47  46  97 CALM      30.06F
MT. PLEASANT * CLEAR     48  45  87 SE6       30.06F
MUSCATINE *    CLEAR     46  45  93 CALM      30.06F
QUAD CITIES    CLEAR     45  43  93 CALM      30.07F
$$

IAZ062-063-075>077-085>089-095>099-170800-
   SOUTHEAST IOWA

CITY           SKY/WX    TMP DP  RH WIND       PRES   REMARKS
BURLINGTON     CLEAR     48  47  96 CALM      30.06F
FAIRFIELD *    CLEAR     48  45  87 CALM      30.05F
FORT MADISON * CLEAR     52  48  87 CALM      30.07S
KEOKUK *       CLEAR     50  48  93 CALM      30.06S
OSKALOOSA *      N/A     50  46  87 SE5       30.05S
CENTERVILLE *  CLEAR     50  50 100 SE5       30.05S
OTTUMWA        PTCLDY    48  46  93 SE5       30.04F
WASHINGTON *   CLEAR     46  46 100 CALM      30.05F
$$

ABBREVIATIONS USED IN REMARKS
   TC - TEMPERATURES IN CELSIUS
  WCI - WIND CHILL INDEX
   HX - HEAT INDEX
  VSB - VISIBILITY
$$




USA.gov is the U.S. government's official web portal to all federal, state and local government web resources and services.